Total_Precipitation_Accumulation
0.05 0.07 0.09 0.11 0.11 0.17 0.21 0.19 0.28 0.34 0.35 0.41 0.56 0.77 1.00 1.09 1.25 1.36 1.58 1.63 1.92 2.13 2.32 2.67 3.12 3.58 4.18 4.40 4.49 4.48 4.63 4.92 5.11 5.26 5.30 5.70 5.74 5.57 5.77 6.01 5.91 6.05 6.10 5.81
0.06 0.06 0.05 0.05 0.07 0.18 0.23 0.19 0.30 0.42 0.47 0.53 0.65 0.85 1.08 1.23 1.22 1.51 1.82 1.90 2.40 2.56 2.50 2.69 3.23 3.65 4.09 4.41 4.59 4.84 4.95 5.00 5.14 5.62 6.08 6.48 6.86 6.80 6.71 6.88 6.94 6.71 6.57 6.44
0.06 0.07 0.07 0.08 0.10 0.16 0.22 0.27 0.37 0.52 0.52 0.62 0.79 1.27 1.39 1.37 1.40 1.64 1.98 2.17 2.55 2.69 2.82 2.76 2.94 3.34 3.77 4.16 4.42 4.65 4.96 5.36 5.92 6.60 7.08 7.35 7.72 7.87 7.62 7.33 7.16 6.92 6.70 6.49
0.07 0.06 0.09 0.09 0.12 0.12 0.18 0.21 0.30 0.37 0.49 0.73 0.84 1.59 1.77 1.67 1.75 1.86 2.05 2.17 2.46 2.39 2.61 2.78 2.84 3.11 3.45 3.75 4.12 4.55 4.96 5.58 6.50 7.22 7.69 8.11 8.26 8.29 8.11 7.80 7.36 6.95 6.54 6.11
0.10 0.08 0.09 0.09 0.11 0.09 0.11 0.13 0.21 0.26 0.38 0.62 0.75 1.40 1.85 1.80 2.01 2.09 2.27 2.33 2.39 2.41 2.39 2.51 2.61 2.78 3.14 3.50 3.86 4.31 4.79 5.53 6.28 6.94 7.58 8.13 8.30 8.26 7.98 7.53 6.98 6.47 5.99 5.52
0.09 0.08 0.07 0.07 0.08 0.08 0.10 0.16 0.25 0.33 0.55 0.90 0.75 1.18 1.95 2.15 2.27 2.35 2.33 2.39 2.62 2.57 2.42 2.43 2.45 2.56 2.80 3.14 3.50 3.96 4.42 4.99 5.64 6.12 6.74 7.21 7.42 7.34 6.92 6.38 5.77 5.37 5.12 4.84
0.14 0.11 0.08 0.08 0.11 0.10 0.13 0.29 0.68 0.88 1.00 1.05 0.76 1.26 2.16 2.34 2.24 2.33 2.48 2.63 2.73 2.71 2.55 2.45 2.43 2.47 2.64 2.92 3.29 3.60 3.85 4.30 4.59 4.94 5.45 5.83 5.92 5.81 5.50 5.21 4.97 4.58 4.14 3.78
0.29 0.25 0.14 0.11 0.13 0.15 0.16 0.28 0.76 1.15 1.08 1.05 1.12 1.87 2.54 2.44 2.20 2.15 2.28 2.37 2.41 2.36 2.34 2.35 2.37 2.49 2.63 2.67 2.88 3.09 3.14 3.33 3.56 3.78 4.03 4.18 4.22 4.26 4.25 4.14 3.81 3.45 3.06 2.74
0.41 0.34 0.16 0.11 0.11 0.12 0.17 0.25 0.34 0.63 0.74 1.13 1.68 2.31 2.78 2.52 2.44 2.31 2.09 1.93 2.12 2.23 2.22 2.28 2.34 2.49 2.57 2.51 2.46 2.55 2.62 2.66 2.77 2.86 3.03 3.14 3.18 3.34 3.35 3.27 3.07 2.81 2.61 2.35
0.36 0.34 0.19 0.11 0.10 0.13 0.16 0.23 0.37 0.67 1.22 1.56 1.90 2.54 3.13 3.08 2.98 2.90 2.54 2.15 2.20 2.26 2.34 2.35 2.30 2.29 2.38 2.26 2.21 2.30 2.40 2.37 2.37 2.33 2.33 2.28 2.46 2.59 2.66 2.58 2.40 2.36 2.34 2.24
0.29 0.32 0.25 0.17 0.20 0.23 0.22 0.29 0.41 0.70 0.98 1.55 2.26 2.96 2.87 3.15 3.23 3.07 2.70 2.28 2.26 2.28 2.36 2.39 2.43 2.27 2.20 2.19 2.18 2.09 2.08 2.06 2.02 2.00 2.06 1.99 1.98 2.01 1.99 1.88 1.81 1.86 1.90 1.93
0.30 0.35 0.39 0.27 0.23 0.23 0.28 0.32 0.44 0.92 1.06 1.20 2.00 2.99 2.81 3.12 3.27 3.07 2.91 2.61 2.41 2.48 2.46 2.37 2.42 2.39 2.22 2.05 2.01 1.97 1.93 1.86 1.83 1.85 1.89 1.77 1.69 1.70 1.72 1.69 1.62 1.62 1.67 1.66
0.34 0.55 0.80 0.87 0.70 0.41 0.34 0.33 0.41 0.57 0.86 1.24 1.96 2.94 2.90 2.98 2.89 2.75 2.73 2.67 2.68 2.89 2.75 2.53 2.39 2.13 2.02 1.86 1.73 1.70 1.78 1.79 1.76 1.79 1.82 1.79 1.66 1.59 1.56 1.55 1.49 1.41 1.46 1.48
0.35 0.60 1.03 1.54 1.25 0.67 0.48 0.44 0.49 0.63 1.05 1.40 1.75 2.39 2.68 2.86 2.87 2.85 2.87 2.89 2.82 2.65 2.36 2.14 1.99 1.82 1.78 1.75 1.66 1.59 1.60 1.64 1.63 1.66 1.71 1.72 1.68 1.59 1.51 1.49 1.50 1.45 1.42 1.36
0.43 0.72 0.77 0.76 0.65 0.55 0.54 0.53 0.59 0.67 0.82 1.30 1.64 2.14 2.59 2.82 2.96 2.79 2.83 2.74 2.48 2.32 2.20 2.02 1.95 1.87 1.76 1.70 1.65 1.58 1.54 1.52 1.48 1.53 1.54 1.51 1.49 1.48 1.41 1.38 1.42 1.41 1.41 1.32
0.51 0.80 0.73 0.68 0.57 0.60 0.70 0.70 0.76 0.77 0.88 1.17 1.59 2.22 2.49 2.74 2.88 2.80 2.79 2.59 2.48 2.39 2.31 2.18 2.10 2.00 1.87 1.65 1.62 1.63 1.62 1.61 1.57 1.52 1.41 1.35 1.36 1.33 1.26 1.22 1.20 1.20 1.22 1.29
0.60 0.87 1.01 0.96 0.65 0.91 1.43 1.12 1.02 1.14 1.11 1.39 1.89 2.15 2.07 2.19 2.37 2.50 2.59 2.56 2.45 2.38 2.37 2.33 2.26 2.17 2.03 1.82 1.73 1.68 1.65 1.59 1.55 1.54 1.41 1.30 1.32 1.32 1.24 1.15 1.19 1.18 1.17 1.24
0.61 0.95 1.06 1.09 1.28 2.07 1.98 1.27 1.10 1.26 1.39 1.33 1.51 1.63 1.69 1.76 1.96 2.15 2.29 2.48 2.54 2.46 2.37 2.30 2.21 2.08 2.00 1.86 1.70 1.58 1.51 1.43 1.51 1.55 1.47 1.34 1.31 1.29 1.25 1.22 1.27 1.30 1.25 1.26
0.48 0.89 1.24 1.44 1.89 2.22 2.00 1.38 1.24 1.61 1.98 1.48 1.40 1.45 1.44 1.50 1.75 2.18 2.28 2.45 2.60 2.44 2.37 2.30 2.13 2.00 1.94 1.75 1.56 1.46 1.49 1.43 1.43 1.46 1.39 1.32 1.25 1.23 1.19 1.20 1.25 1.28 1.29 1.30
0.49 0.80 1.36 1.74 2.31 2.64 2.37 1.27 0.94 1.52 2.58 1.68 1.42 1.57 1.64 1.76 2.22 2.29 2.06 2.09 2.29 2.35 2.42 2.34 2.08 1.91 1.81 1.56 1.36 1.33 1.35 1.32 1.33 1.26 1.21 1.17 1.21 1.21 1.19 1.20 1.21 1.26 1.30 1.30
1.03 1.19 1.48 1.88 2.41 2.43 1.56 0.97 1.11 2.40 2.76 1.89 1.66 1.76 1.89 2.06 2.20 1.92 1.71 1.76 1.92 2.12 2.19 2.08 1.93 1.82 1.62 1.41 1.32 1.34 1.27 1.16 1.08 1.08 1.12 1.15 1.20 1.25 1.24 1.29 1.28 1.31 1.28 1.32
1.35 1.72 1.89 2.12 2.58 2.64 1.31 1.10 1.79 2.19 1.66 1.52 1.50 1.52 1.64 1.58 1.45 1.43 1.54 1.65 1.78 1.92 1.95 1.84 1.78 1.69 1.56 1.42 1.42 1.45 1.31 1.11 1.03 1.07 1.13 1.16 1.19 1.07 1.07 1.30 1.31 1.25 1.32 1.33
1.22 1.54 1.89 2.23 2.53 2.14 1.44 1.50 1.61 1.53 1.57 1.46 1.44 1.37 1.44 1.42 1.37 1.42 1.46 1.55 1.65 1.73 1.73 1.61 1.52 1.56 1.56 1.49 1.48 1.52 1.38 1.18 1.13 1.21 1.21 1.18 1.18 1.20 1.24 1.27 1.22 1.20 1.24 1.17
1.17 1.00 1.34 1.78 1.76 1.53 1.36 1.33 1.33 1.30 1.35 1.26 1.23 1.23 1.36 1.46 1.46 1.54 1.44 1.40 1.47 1.52 1.51 1.50 1.43 1.47 1.52 1.43 1.34 1.41 1.36 1.26 1.26 1.27 1.20 1.16 1.22 1.34 1.34 1.27 1.11 1.07 1.05 1.03
1.20 1.31 1.68 1.99 1.72 1.56 1.41 1.18 1.05 1.01 0.97 1.00 1.02 1.08 1.22 1.37 1.39 1.40 1.40 1.33 1.23 1.18 1.23 1.34 1.43 1.39 1.32 1.27 1.16 1.15 1.21 1.26 1.37 1.36 1.26 1.16 1.09 1.16 1.22 1.08 0.92 0.90 0.88 0.91
1.13 1.56 2.19 2.10 1.76 1.90 1.67 1.22 0.98 1.00 1.08 1.09 1.02 0.93 0.95 1.07 1.15 1.20 1.27 1.18 1.05 0.99 1.04 1.15 1.19 1.18 1.16 1.12 1.08 1.07 1.06 1.11 1.32 1.32 1.20 1.08 0.93 0.91 0.89 0.87 0.86 0.86 0.83 0.85